Location: Mahannah Oil Field
(37.4664°N, 96.6003°W)
Time: 01:26:40
(UTC+00:00)

A-11 Canister half - Pass Details

Date: 29 January 2021
Orbit: 1524 x 1684 km, 47.3° (Epoch: 25 February)

Event Time Altitude Azimuth Distance (km) Brightness Sun altitude
Rises 18:27:26 0° 219° (SW) 4,668 12.1 34.7°
Reaches altitude 10° 18:30:30 10° 215° (SW) 3,682 11.8 34.8°
Maximum altitude 18:39:32 60° 138° (SE) 1,707 10.3 34.8°
Drops below altitude 10° 18:48:42 10° 62° (ENE) 3,730 10.9 34.8°
Sets 18:51:49 0° 59° (ENE) 4,732 11.3 34.7°
